Regional Weather Roundup
Issued by NWS Northern Indiana

Home | Current Version | Previous Version | Graphics & Text | Print | Product List | Glossary On
Versions: 1 2 3 4 5 6 7 8 9 10 11 12 13 14 15 16 17 18 19 20 21 22 23 24 25 26 27 28 29 30 31 32 33 34 35 36 37 38 39 40 41 42 43 44 45 46 47 48 49 50
000
ASUS43 KIWX 272100
RWRIWX

KIWX WEATHER ROUNDUP
NATIONAL WEATHER SERVICE NORTHERN INDIANA
400 PM EST MON FEB 27 2017

NOTE: "FAIR" INDICATES FEW OR NO CLOUDS BELOW 12,000 FEET WITH NO
SIGNIFICANT WEATHER AND/OR OBSTRUCTIONS TO VISIBILITY.

* THESE STATIONS ARE NOT UNDER NWS QUALITY CONTROL. THEY ALSO MAY NOT
  REPORT WEATHER SUCH AS PRECIPITATION OR FOG.

INZ001>027-272200-
NORTHERN INDIANA

CITY           SKY/WX    TMP DP  RH WIND       PRES   REMARKS
GARY*          MOSUNNY   54  30  40 S9        30.10F
KNOX*          CLOUDY    50  10  20 S9        30.13F
SOUTH BEND     PTSUNNY   50  33  52 S12       30.14F
ELKHART*       MOSUNNY   50  32  50 SW8       30.15S
GOSHEN         CLOUDY    51  32  48 SW8       30.15S
ANGOLA*        PTSUNNY   48  36  61 S7        30.15F
FORT WAYNE     CLOUDY    50  32  50 S12       30.17S
PERU/GRISSOM   CLOUDY    52  37  56 SE10      30.13F

$$
INZ028>050-272200-
CENTRAL INDIANA

CITY           SKY/WX    TMP DP  RH WIND       PRES   REMARKS
LAFAYETTE      CLOUDY    53  36  52 SE9       30.12F
KOKOMO*        CLOUDY    51  39  63 S12       30.15F
MUNCIE*        CLOUDY    49  38  65 S10       30.17S
INDIANAPOLIS   PTSUNNY   50  39  66 SE13      30.14S

$$
MIZ043>046-050>051-056>058-064>065-071>073-077>080-272200-
SOUTHWEST LOWER MICHIGAN

CITY           SKY/WX    TMP DP  RH WIND       PRES   REMARKS
BATTLE CREEK   SUNNY     49  29  46 S9        30.14S
BENTON HARBOR  SUNNY     50  32  50 W8        30.12F
COLDWATER*     PTSUNNY   50  31  47 SW9       30.15S
HILLSDALE*     MOSUNNY   46  32  57 S7        30.15F
HOLLAND        SUNNY     50  29  44 S12       30.13F
GRAND RAPIDS   MOSUNNY   50  27  40 SW15      30.12F
KALAMAZOO      SUNNY     49  28  44 S9        30.15S
STURGIS*       PTSUNNY   49  35  56 S8        30.14F
THREE RIVERS*  FAIR      50  32  50 SW10      30.15S

$$
OHZ001>008-015>018-024>025-272200-
NORTHWEST OHIO

CITY           SKY/WX    TMP DP  RH WIND       PRES   REMARKS
DEFIANCE       CLOUDY    48  33  56 S5        30.19S
FINDLAY        CLOUDY    50  33  52 S12       30.19S
TOLEDO EXPRESS CLOUDY    49  34  56 SW8       30.19F
TOLEDO METCALF CLOUDY    50  35  56 S13       30.21S
LIMA           CLOUDY    46  38  73 S13       30.19S

$$
AND FOR LAKE MICHIGAN COASTAL AND OPEN LAKE BUOY OBSERVATIONS

STATION/POSITION TEMP    WIND        PRES    VSBY  WAVE
                 AIR SEA DIR/SP/G                  HT/PER
                 (F)     (DEG/KT/KT) (MB)    (MI)  (FT/S)
CALUMET HARBOR    51     180/  6/ 11 1018.5F
MICHIGAN CITY     38      30/  9/  9   N/A
BURNS HARBOR      45     260/  3/  6 1020.3F

$$
&&



USA.gov is the U.S. government's official web portal to all federal, state and local government web resources and services.